Wind_Speed
48 49 50 51 51 52 54 56 56 55 53 52 53 53 53 53 52 51 51 51 50 50 51 50 50 50 50 50 50 52 53 54 55 55 55 55 55 55
48 48 49 50 51 53 54 55 56 56 54 51 52 52 52 51 50 49 48 47 46 46 47 46 46 46 46 46 47 49 49 50 52 53 53 54 54 53
48 48 49 50 51 53 53 53 54 55 54 51 51 50 50 48 47 46 45 44 43 42 42 41 41 41 42 42 44 46 47 46 48 49 49 50 50 50
48 49 50 51 51 52 52 52 52 53 53 51 49 48 47 45 44 43 42 41 40 39 39 38 38 38 38 39 40 42 44 44 45 46 46 46 46 47
48 49 50 51 51 51 51 50 50 49 49 48 46 44 42 42 41 39 38 38 38 39 38 36 36 35 36 37 38 39 40 41 42 42 43 44 43 43
48 48 49 50 49 49 48 47 47 46 45 44 43 40 38 38 38 37 36 36 36 37 37 36 35 34 34 35 35 36 37 38 39 38 39 40 40 41
47 47 47 46 46 45 44 44 43 42 41 40 39 38 36 34 35 34 34 33 33 34 34 34 33 32 32 32 33 34 35 35 35 35 36 37 38 37
45 45 44 43 43 42 41 41 41 40 39 37 36 35 34 31 31 32 32 30 30 31 32 31 31 31 30 31 31 31 33 33 32 33 33 34 34 35
43 43 42 42 41 40 38 37 37 36 36 35 34 32 32 31 30 29 29 29 28 28 28 28 29 28 29 29 28 29 30 31 31 31 31 31 32 32
40 40 40 39 39 38 37 36 35 35 35 34 33 32 31 30 28 28 27 27 26 25 26 26 25 24 24 24 26 27 28 28 28 28 28 28 28 28
37 37 37 37 37 37 36 35 34 33 32 31 31 30 28 28 27 26 25 25 24 23 23 23 22 21 21 22 22 24 25 26 26 26 27 26 24 25
34 34 35 35 35 35 34 33 32 31 30 29 29 27 26 26 25 24 23 23 23 22 21 22 20 19 19 19 20 21 21 21 22 22 22 22 22 22
32 33 33 34 34 34 33 32 31 30 28 27 25 24 23 22 22 21 20 20 20 19 19 20 19 19 19 18 18 19 19 19 19 18 18 18 18 18
31 32 32 33 33 32 31 30 29 28 25 24 22 21 20 20 20 20 19 18 18 18 18 18 18 18 17 17 17 17 18 17 16 16 16 16 17 17
31 32 32 32 31 29 28 28 28 26 24 22 21 20 19 18 18 17 17 16 16 16 17 16 16 15 14 14 14 15 16 16 16 15 16 16 17 17
31 31 31 31 29 27 27 26 25 23 21 20 19 17 16 16 15 15 15 15 14 13 13 13 14 13 12 12 13 14 15 15 15 15 15 16 16 16
30 30 30 28 27 25 24 23 22 20 19 17 16 16 15 16 15 15 15 15 13 12 11 10 10 9 9 10 11 11 11 12 13 13 13 13 14 14
29 29 28 26 24 23 22 21 19 19 18 17 16 16 16 15 14 13 12 12 11 10 10 9 9 8 8 9 9 10 10 10 11 11 11 11 11 12
28 27 26 24 22 21 20 19 18 17 16 16 15 15 15 13 12 11 10 10 9 9 8 8 7 7 7 7 8 9 9 9 9 9 8 9 9 10
26 25 23 20 19 19 17 16 16 15 15 15 14 13 12 11 10 10 10 10 9 8 8 8 8 7 7 8 8 8 9 8 9 9 9 9 9 8
24 22 19 18 17 16 15 14 14 15 14 13 12 11 9 9 8 9 9 9 9 8 7 8 8 7 8 8 8 8 8 9 9 9 9 9 8 8
21 19 18 16 15 14 13 13 14 14 12 10 9 8 7 6 5 6 7 8 7 7 6 6 7 7 7 7 8 9 9 9 9 9 9 9 8 8
20 18 17 15 14 13 12 13 13 12 10 8 7 6 5 5 4 5 6 6 6 5 6 6 6 6 6 6 8 8 9 9 9 9 8 8 9 9
Wind_Direction
291 291 291 290 290 291 291 290 290 289 287 286 285 285 284 283 282 280 280 279 277 274 271 269 269 268 266 264 261 259 257 256 257 259 258 260 261 261
292 292 292 292 292 292 293 292 290 289 289 288 287 285 284 283 281 280 280 280 278 274 270 270 269 267 266 264 262 260 258 259 259 259 259 259 259 260
293 293 293 293 293 294 294 293 291 290 289 289 288 285 284 282 280 279 279 279 277 275 271 270 269 267 266 265 262 261 260 260 260 259 259 258 257 259
294 293 294 294 295 296 295 293 293 291 290 290 289 285 283 280 279 278 278 278 276 273 270 270 270 269 268 265 263 261 261 260 260 259 257 255 257 260
295 295 295 295 296 296 296 294 294 292 290 289 289 286 282 279 278 278 277 276 275 273 271 271 271 270 269 266 264 263 261 259 260 258 255 254 257 259
296 296 297 297 298 298 297 296 295 294 291 288 287 285 283 279 276 276 275 274 273 273 272 272 272 270 269 267 266 264 260 258 258 256 256 257 257 257
296 297 298 299 299 299 298 297 296 295 293 290 286 285 283 279 277 275 276 275 274 273 272 272 273 271 269 269 268 264 260 258 256 255 256 257 257 256
296 297 298 299 300 300 300 299 299 297 296 292 289 286 282 280 276 275 276 276 274 272 272 271 273 271 269 267 267 264 260 258 256 257 258 258 257 256
296 297 298 299 300 300 300 300 301 300 297 293 291 288 283 280 277 275 273 276 275 271 270 271 272 272 269 266 264 261 259 257 257 257 257 256 254 255
296 298 299 301 302 301 301 301 301 300 297 293 291 288 285 280 277 274 274 275 275 274 274 273 271 271 270 268 264 261 259 257 256 256 255 254 253 253
298 300 301 303 303 302 302 302 301 299 296 293 290 287 284 279 276 274 274 275 275 276 274 272 270 271 271 267 263 261 258 255 256 256 253 251 251 252
301 303 304 304 304 305 305 304 301 298 296 293 290 286 281 277 274 272 274 275 277 277 275 273 271 271 269 265 262 260 255 255 256 253 252 249 250 251
302 304 305 305 305 305 305 305 303 301 298 295 290 284 279 274 270 270 273 274 276 275 274 272 270 272 271 264 259 258 256 255 250 249 250 250 248 248
304 305 306 306 306 305 305 305 304 302 298 295 291 286 280 272 269 269 271 273 273 272 273 273 270 271 269 262 257 257 256 252 245 243 246 246 243 244
304 306 306 307 307 306 305 304 304 301 297 293 289 286 280 275 271 268 270 271 272 270 270 270 271 269 267 259 253 253 250 245 241 241 243 242 243 248
305 305 305 305 306 305 304 304 303 301 298 294 290 285 275 273 273 271 272 272 270 269 269 270 267 266 260 251 249 249 245 238 235 239 243 243 244 248
304 305 306 305 304 304 304 304 302 302 299 295 292 287 280 277 277 274 270 268 263 262 265 267 264 267 260 248 245 246 240 234 234 240 243 244 244 246
306 305 305 304 304 304 304 304 301 300 299 296 293 289 285 282 279 274 267 259 255 253 252 257 263 268 260 246 240 236 233 233 236 239 242 242 240 240
308 307 306 304 304 305 305 304 302 302 301 300 295 291 287 283 275 266 258 255 251 246 245 246 252 256 254 248 240 233 229 227 228 228 232 233 234 238
309 308 306 303 304 306 305 304 305 305 303 301 297 294 289 281 269 257 253 250 246 243 242 243 246 248 250 245 239 229 225 225 224 226 227 228 227 230
308 307 305 303 303 305 306 305 306 306 304 299 298 297 289 277 264 249 241 235 238 242 242 248 251 254 249 241 233 223 224 225 222 221 219 220 221 221
308 306 304 304 304 305 305 306 308 308 305 298 296 291 282 270 253 236 228 230 238 245 247 249 251 247 242 237 228 223 223 220 214 212 212 212 209 205
305 303 303 303 304 304 305 307 308 308 304 296 294 287 274 256 238 232 233 233 233 236 243 241 241 239 232 218 209 208 207 204 201 199 198 192 185 184
Height
5625 5621 5618 5614 5610 5606 5602 5598 5594 5593 5595 5593 5589 5586 5582 5579 5577 5575 5574 5573 5572 5571 5571 5571 5572 5572 5574 5576 5579 5582 5586 5590 5594 5597 5601 5604 5606 5608
5613 5609 5606 5602 5598 5594 5589 5585 5579 5575 5576 5578 5574 5571 5567 5564 5562 5561 5560 5558 5557 5556 5557 5557 5558 5558 5559 5561 5564 5567 5570 5574 5578 5581 5584 5588 5590 5592
5602 5598 5594 5589 5585 5581 5576 5571 5567 5562 5559 5561 5559 5556 5552 5550 5549 5547 5546 5545 5544 5544 5544 5544 5545 5546 5547 5549 5551 5553 5556 5560 5563 5567 5569 5572 5575 5578
5590 5586 5582 5577 5573 5568 5563 5558 5554 5549 5545 5544 5544 5541 5538 5536 5535 5534 5533 5532 5532 5532 5532 5532 5533 5534 5535 5536 5538 5540 5543 5546 5549 5552 5555 5558 5562 5564
5578 5574 5569 5564 5560 5555 5550 5545 5541 5536 5532 5529 5528 5527 5525 5523 5522 5522 5522 5521 5521 5521 5521 5522 5523 5524 5524 5526 5527 5529 5531 5534 5537 5539 5542 5545 5548 5552
5567 5562 5557 5552 5547 5542 5538 5533 5529 5525 5521 5518 5516 5514 5513 5512 5511 5511 5512 5511 5511 5511 5511 5512 5513 5514 5515 5516 5517 5519 5520 5523 5525 5528 5531 5534 5537 5540
5556 5551 5546 5540 5535 5530 5526 5522 5518 5514 5510 5507 5505 5504 5503 5501 5501 5501 5501 5501 5501 5501 5502 5503 5504 5505 5505 5506 5507 5508 5510 5513 5516 5518 5521 5524 5527 5529
5545 5541 5536 5531 5526 5521 5516 5512 5507 5503 5499 5497 5495 5493 5493 5492 5491 5491 5491 5492 5493 5493 5493 5494 5494 5495 5496 5497 5498 5499 5501 5504 5506 5509 5512 5515 5517 5520
5534 5530 5526 5521 5516 5512 5508 5504 5499 5494 5490 5488 5486 5484 5483 5483 5483 5483 5483 5483 5484 5484 5484 5486 5486 5486 5487 5488 5489 5491 5492 5495 5498 5501 5503 5506 5508 5511
5524 5520 5517 5513 5508 5503 5500 5496 5491 5487 5483 5480 5478 5477 5475 5475 5474 5475 5475 5476 5476 5476 5476 5477 5478 5479 5480 5480 5481 5483 5485 5487 5489 5492 5495 5498 5500 5503
5516 5512 5508 5504 5500 5495 5491 5488 5484 5479 5475 5472 5470 5469 5468 5467 5467 5467 5468 5469 5470 5471 5470 5471 5472 5472 5473 5474 5475 5476 5478 5480 5482 5485 5488 5490 5493 5495
5509 5504 5500 5496 5492 5487 5483 5479 5476 5472 5469 5466 5464 5462 5461 5460 5460 5460 5461 5462 5463 5464 5465 5465 5466 5466 5468 5468 5469 5470 5472 5474 5477 5479 5482 5484 5486 5489
5501 5498 5493 5488 5484 5479 5475 5471 5467 5464 5461 5459 5457 5455 5454 5454 5455 5455 5455 5456 5457 5458 5459 5459 5460 5461 5462 5463 5464 5465 5467 5469 5471 5474 5477 5479 5482 5484
5493 5490 5486 5481 5477 5473 5469 5465 5461 5457 5455 5453 5450 5449 5449 5449 5449 5450 5450 5451 5451 5452 5453 5454 5455 5456 5457 5457 5459 5460 5462 5465 5467 5470 5473 5475 5477 5480
5486 5482 5478 5474 5470 5466 5463 5459 5455 5452 5449 5447 5445 5444 5444 5444 5444 5445 5445 5446 5446 5447 5448 5448 5449 5450 5451 5453 5454 5456 5459 5461 5464 5466 5469 5471 5474 5476
5478 5475 5471 5467 5463 5460 5456 5453 5450 5446 5444 5442 5441 5440 5439 5439 5439 5440 5441 5441 5442 5443 5444 5444 5445 5446 5447 5448 5450 5452 5455 5458 5460 5463 5465 5467 5470 5472
5471 5468 5464 5461 5457 5454 5451 5447 5444 5442 5439 5438 5436 5435 5435 5435 5435 5435 5436 5437 5438 5439 5440 5441 5441 5442 5444 5445 5447 5449 5451 5454 5456 5459 5461 5463 5465 5467
5464 5461 5457 5454 5451 5448 5445 5443 5440 5438 5436 5434 5433 5432 5431 5431 5431 5431 5432 5433 5434 5435 5437 5438 5439 5440 5441 5443 5445 5446 5448 5451 5453 5455 5457 5459 5461 5464
5457 5454 5451 5448 5445 5443 5440 5438 5436 5434 5432 5431 5430 5429 5428 5427 5427 5428 5429 5430 5431 5432 5434 5435 5436 5438 5439 5441 5442 5444 5446 5448 5450 5452 5454 5456 5459 5461
5451 5448 5445 5443 5440 5438 5436 5434 5432 5431 5429 5427 5426 5425 5424 5423 5424 5424 5425 5427 5428 5430 5431 5432 5434 5435 5437 5439 5440 5442 5444 5446 5448 5450 5452 5454 5456 5458
5446 5443 5440 5438 5436 5434 5432 5430 5429 5428 5426 5424 5423 5422 5421 5421 5421 5421 5422 5424 5426 5427 5429 5430 5431 5433 5434 5436 5438 5440 5442 5443 5445 5447 5450 5452 5454 5455
5441 5438 5436 5434 5432 5430 5429 5427 5426 5425 5423 5422 5421 5420 5419 5419 5419 5420 5421 5422 5424 5425 5426 5428 5429 5430 5432 5434 5436 5438 5439 5441 5443 5445 5447 5449 5451 5454
5435 5433 5432 5430 5428 5427 5426 5424 5423 5422 5421 5420 5419 5419 5418 5418 5418 5419 5420 5421 5422 5423 5424 5426 5427 5428 5430 5432 5434 5435 5437 5439 5441 5443 5445 5447 5449 5452